Location: Newark
(49.3000°N, 9.4667°E)
Time: 04:43:53
(UTC+00:00)

OTV 5 (USA 277) - Visible Passes

Search period start: 17 February 2019 00:00
Search period end: 27 February 2019 00:00
Orbit: 342 x 346 km, 54.5° (Epoch: 09 February)

Date Brightness Start Highest point End Pass type
(mag) Time Alt. Az. Time Alt. Az. Time Alt. Az.
23 Feb ? 18:38:02 10° S 18:38:23 12° S 18:38:23 12° S visible
24 Feb ? 19:00:50 10° SW 19:01:55 20° SSW 19:01:55 20° SSW visible
25 Feb ? 17:50:31 10° S 17:52:37 18° SE 17:53:50 15° ESE visible
25 Feb ? 19:24:22 10° WSW 19:25:18 18° WSW 19:25:18 18° WSW visible
26 Feb ? 18:13:17 10° SW 18:16:03 47° SE 18:17:06 30° E visible
26 Feb ? 19:48:17 10° W 19:48:34 12° W 19:48:34 12° W visible
